Regional Weather Roundup
Issued by NWS Little Rock, AR

Home | Current Version | Previous Version | Graphics & Text | Print | Product List | Glossary On
Versions: 1 2 3 4 5 6 7 8 9 10 11 12 13 14 15 16 17 18 19 20 21 22 23 24 25 26 27 28 29 30 31 32 33 34 35 36 37 38 39 40 41 42 43 44 45 46 47 48 49 50
000
ASUS44 KLZK 262105
RWRLZK

WEATHER ROUNDUP FOR ARKANSAS
NATIONAL WEATHER SERVICE LITTLE ROCK AR
300 PM CST WED NOV 26 2014

NOTE: "FAIR" INDICATES FEW OR NO CLOUDS BELOW 12,000 FEET WITH NO
SIGNIFICANT WEATHER AND/OR OBSTRUCTIONS TO VISIBILITY.

ARZ001-003-010-029-262200-
NORTHWEST ARKANSAS

CITY           SKY/WX    TMP DP  RH WIND       PRES   REMARKS
FAYETTEVILLE   PTSUNNY   49  27  42 NW15G23   30.10R
FORT SMITH     MOSUNNY   57  28  33 W18       30.12R
HARRISON       CLOUDY    48  26  42 NW20G31   30.05R
BENTONVILLE    PTSUNNY   48  25  40 NW15G28   30.10R
ROGERS         PTSUNNY   48  24  39 NW23G29   30.09R
SILOAM SPGS    PTSUNNY   52  27  37 NW23      30.11R
HIGHFILL       PTSUNNY   50  26  39 NW18G28   30.09R
SPRINGDALE     PTSUNNY   50  27  40 NW17G29   30.10R
$$

ARZ004-005-016-262200-
NORTH CENTRAL ARKANSAS

CITY           SKY/WX    TMP DP  RH WIND       PRES   REMARKS
BATESVILLE     CLOUDY    54  34  47 NW14      30.02R
FLIPPIN        CLOUDY    48  28  46 NW16G22   30.05R
MTN HOME       CLOUDY    47  28  47 NW12G21   30.03R
$$

ARZ040-041-262200-
WEST CENTRAL ARKANSAS

CITY           SKY/WX    TMP DP  RH WIND       PRES   REMARKS
MENA           PTSUNNY   55  30  38 NW17G25   30.13R
MOUNT IDA      MOSUNNY   57  27  31 NW13G24   30.07R
$$

ARZ009-017-025-026-028-262200-
NORTHEAST ARKANSAS

CITY           SKY/WX    TMP DP  RH WIND       PRES   REMARKS
CORNING        FAIR      43  37  81 NW15      30.04R
JONESBORO      SUNNY     47  38  71 W14G23    30.02R
NEWPORT        SUNNY     50  37  60 W12G18    30.04R
WALNUT RIDGE   MOSUNNY   48  36  61 NW14G20   30.01R
BLYTHEVILLE    CLOUDY    51  37  58 W8        30.00R
$$

ARZ022-023-033-042-044-262200-
CENTRAL ARKANSAS

CITY           SKY/WX    TMP DP  RH WIND       PRES   REMARKS
LITTLE ROCK    MOSUNNY   58  28  32 NW10G20   30.06R
N LITTLE ROCK  MOSUNNY   55  33  44 NW9G16    30.06R
JACKSONVILLE   SUNNY     57  31  38 W18       30.04R
SEARCY         MOSUNNY   56  33  42 NW6G16    30.04R
HOT SPRINGS    SUNNY     57  27  31 NW14G23   30.08R
RUSSELLVILLE   SUNNY     58  27  30 W20G28    30.05R
CLINTON        FAIR      57  25  28 NW21G29   30.03R
$$

ARZ036-262200-
EAST ARKANSAS

CITY           SKY/WX    TMP DP  RH WIND       PRES   REMARKS
WEST MEMPHIS   PTSUNNY   50  38  63 W12       30.01R
$$

ARZ050-053-066-070-073-262200-
SOUTHWEST ARKANSAS

CITY           SKY/WX    TMP DP  RH WIND       PRES   REMARKS
ARKADELPHIA    FAIR      61  32  33 NW12      30.09R
CAMDEN         SUNNY     63  30  29 MISG      30.08R
TEXARKANA      SUNNY     62  33  33 NW17      30.11R
EL DORADO      SUNNY     64  32  30 W14       30.08R
DE QUEEN       MOSUNNY   60  31  33 NW10G22   30.10R
$$

ARZ056-057-069-262200-
SOUTHEAST ARKANSAS

CITY           SKY/WX    TMP DP  RH WIND       PRES   REMARKS
PINE BLUFF     SUNNY     59  33  37 NW10      30.06R
STUTTGART      SUNNY     55  32  41 W12       30.06R
MONTICELLO     SUNNY     62  32  32 NW12G24   30.05R

$$





USA.gov is the U.S. government's official web portal to all federal, state and local government web resources and services.